| time (UTC) | temp F | wind direction | speed knots | gust knots | rain 1hr in | rain 24hr in | rain mn in | humidity % | barometer mb |
| 20260506212006 | 57 | 219 | 0.9 | 2.6 | 0.02 | 0.07 | 0.07 | 95 | 1007.4 |
| 20260506211521 | 58 | 313 | 0.9 | 7.0 | 0.01 | 0.06 | 0.06 | 94 | 1007.4 |
| 20260506211007 | 58 | 199 | 3.5 | 6.1 | 0.00 | 0.05 | 0.05 | 94 | 1007.5 |
| 20260506210503 | 58 | 173 | 0.9 | 7.0 | 0.00 | 0.05 | 0.05 | 94 | 1007.5 |
| 20260506210006 | 58 | 86 | 0.9 | 7.0 | 0.00 | 0.05 | 0.05 | 94 | 1007.5 |
| 20260506205502 | 58 | 264 | 0.0 | 4.3 | 0.00 | 0.05 | 0.05 | 94 | 1007.5 |
| 20260506205002 | 58 | 190 | 0.9 | 2.6 | 0.00 | 0.05 | 0.05 | 94 | 1007.6 |
| 20260506204510 | 58 | 202 | 0.9 | 4.3 | 0.00 | 0.05 | 0.05 | 94 | 1007.7 |
| 20260506204013 | 58 | 252 | 0.9 | 7.8 | 0.00 | 0.05 | 0.05 | 94 | 1007.6 |
| 20260506203508 | 58 | 209 | 0.9 | 7.8 | 0.00 | 0.05 | 0.05 | 94 | 1007.7 |
| 20260506203016 | 58 | 114 | 0.0 | 7.0 | 0.00 | 0.05 | 0.05 | 94 | 1007.8 |
| 20260506202507 | 58 | 286 | 3.5 | 7.0 | 0.00 | 0.05 | 0.05 | 94 | 1007.8 |
| 20260506202010 | 58 | 228 | 0.9 | 6.1 | 0.01 | 0.05 | 0.05 | 94 | 1007.8 |
| 20260506201508 | 58 | 211 | 0.9 | 6.1 | 0.01 | 0.05 | 0.05 | 94 | 1007.8 |
| 20260506201004 | 58 | 259 | 0.9 | 3.5 | 0.01 | 0.05 | 0.05 | 94 | 1007.8 |
| 20260506200502 | 58 | 273 | 0.9 | 6.1 | 0.01 | 0.05 | 0.05 | 94 | 1007.9 |
| 20260506200006 | 58 | 266 | 2.6 | 5.2 | 0.02 | 0.05 | 0.05 | 94 | 1007.9 |
| 20260506195503 | 58 | 70 | 0.9 | 4.3 | 0.03 | 0.05 | 0.05 | 94 | 1007.9 |
| 20260506195002 | 58 | 316 | 0.9 | 7.0 | 0.04 | 0.05 | 0.05 | 94 | 1008.1 |
| 20260506194502 | 58 | 348 | 0.9 | 7.8 | 0.04 | 0.05 | 0.05 | 93 | 1008.1 |
| 20260506194002 | 58 | 169 | 1.7 | 7.8 | 0.05 | 0.05 | 0.05 | 93 | 1008.2 |
| 20260506193501 | 58 | 256 | 2.6 | 7.8 | 0.05 | 0.05 | 0.05 | 93 | 1008.3 |
| 20260506193001 | 58 | 167 | 1.7 | 7.0 | 0.05 | 0.05 | 0.05 | 93 | 1008.2 |
| 20260506192503 | 58 | 211 | 1.7 | 5.2 | 0.05 | 0.05 | 0.05 | 93 | 1008.2 |
| 20260506192003 | 58 | 240 | 0.9 | 5.2 | 0.04 | 0.04 | 0.04 | 93 | 1008.5 |
| 20260506191506 | 58 | 177 | 2.6 | 5.2 | 0.04 | 0.04 | 0.04 | 92 | 1008.4 |
| 20260506191003 | 58 | 277 | 1.7 | 5.2 | 0.04 | 0.04 | 0.04 | 92 | 1008.5 |
| 20260506190502 | 58 | 304 | 0.9 | 6.1 | 0.04 | 0.04 | 0.04 | 91 | 1008.5 |
| 20260506190007 | 58 | 290 | 1.7 | 7.0 | 0.03 | 0.03 | 0.03 | 91 | 1008.6 |
| 20260506185502 | 58 | 281 | 2.6 | 7.0 | 0.02 | 0.02 | 0.02 | 90 | 1008.6 |
| 20260506185003 | 59 | 34 | 0.0 | 9.6 | 0.01 | 0.01 | 0.01 | 89 | 1008.4 |
| 20260506184507 | 59 | 219 | 1.7 | 9.6 | 0.01 | 0.01 | 0.01 | 89 | 1008.4 |
| 20260506184004 | 59 | 291 | 0.9 | 5.2 | 0.00 | 0.00 | 0.00 | 88 | 1008.5 |
| 20260506183504 | 59 | 175 | 0.9 | 7.8 | 0.00 | 0.00 | 0.00 | 88 | 1008.7 |
| 20260506183006 | 59 | 77 | 1.7 | 10.4 | 0.00 | 0.00 | 0.00 | 87 | 1008.6 |
| 20260506182506 | 60 | 324 | 2.6 | 10.4 | 0.00 | 0.00 | 0.00 | 86 | 1008.9 |
| 20260506182003 | 60 | 300 | 1.7 | 8.7 | 0.00 | 0.00 | 0.00 | 85 | 1009.0 |
| 20260506181503 | 60 | 165 | 1.7 | 10.4 | 0.00 | 0.00 | 0.00 | 85 | 1009.1 |
| 20260506181004 | 60 | 360 | 2.6 | 10.4 | 0.00 | 0.00 | 0.00 | 83 | 1009.4 |
| 20260506180503 | 61 | 360 | 3.5 | 8.7 | 0.00 | 0.00 | 0.00 | 81 | 1009.5 |
| 20260506180007 | 61 | 315 | 1.7 | 7.8 | 0.00 | 0.00 | 0.00 | 81 | 1009.4 |
| 20260506175503 | 62 | 267 | 1.7 | 7.0 | 0.00 | 0.00 | 0.00 | 80 | 1009.4 |
| 20260506175002 | 62 | 101 | 0.9 | 8.7 | 0.00 | 0.00 | 0.00 | 80 | 1009.5 |
| 20260506174504 | 62 | 233 | 2.6 | 8.7 | 0.00 | 0.00 | 0.00 | 79 | 1009.6 |
| 20260506174003 | 62 | 257 | 2.6 | 7.0 | 0.00 | 0.00 | 0.00 | 78 | 1009.7 |
| 20260506173504 | 62 | 310 | 1.7 | 7.0 | 0.00 | 0.00 | 0.00 | 78 | 1009.8 |
| 20260506173009 | 63 | 254 | 1.7 | 9.6 | 0.00 | 0.00 | 0.00 | 77 | 1009.8 |
| 20260506172504 | 63 | 242 | 2.6 | 9.6 | 0.00 | 0.00 | 0.00 | 77 | 1009.8 |
| 20260506172004 | 63 | 279 | 4.3 | 9.6 | 0.00 | 0.00 | 0.00 | 76 | 1009.7 |
| 20260506171521 | 63 | 258 | 2.6 | 8.7 | 0.00 | 0.00 | 0.00 | 76 | 1009.8 |
| 20260506171003 | 64 | 360 | 4.3 | 8.7 | 0.00 | 0.00 | 0.00 | 75 | 1009.8 |
| 20260506170503 | 65 | 240 | 5.2 | 11.3 | 0.00 | 0.00 | 0.00 | 74 | 1009.9 |
| 20260506170003 | 65 | 185 | 2.6 | 11.3 | 0.00 | 0.00 | 0.00 | 73 | 1009.8 |
| 20260506165503 | 66 | 260 | 2.6 | 5.2 | 0.00 | 0.00 | 0.00 | 74 | 1009.8 |
| 20260506165003 | 65 | 229 | 2.6 | 7.0 | 0.00 | 0.00 | 0.00 | 73 | 1009.9 |
| 20260506164504 | 65 | 22 | 2.6 | 8.7 | 0.00 | 0.00 | 0.00 | 73 | 1009.8 |
| 20260506164003 | 66 | 228 | 3.5 | 13.0 | 0.00 | 0.00 | 0.00 | 72 | 1009.7 |
| 20260506163505 | 65 | 213 | 4.3 | 13.0 | 0.00 | 0.00 | 0.00 | 73 | 1009.8 |
| 20260506163004 | 65 | 202 | 1.7 | 7.0 | 0.00 | 0.00 | 0.00 | 74 | 1009.8 |
| 20260506162503 | 65 | 230 | 1.7 | 10.4 | 0.00 | 0.00 | 0.00 | 74 | 1009.9 |
| 20260506162008 | 65 | 260 | 4.3 | 10.4 | 0.00 | 0.00 | 0.00 | 73 | 1009.9 |
| 20260506161504 | 65 | 250 | 3.5 | 15.6 | 0.00 | 0.00 | 0.00 | 74 | 1010.1 |
| 20260506161003 | 65 | 251 | 2.6 | 15.6 | 0.00 | 0.00 | 0.00 | 73 | 1010.2 |
| 20260506160503 | 65 | 241 | 4.3 | 11.3 | 0.00 | 0.00 | 0.00 | 72 | 1010.3 |
| 20260506160023 | 66 | 198 | 4.3 | 10.4 | 0.00 | 0.00 | 0.00 | 72 | 1010.3 |
| 20260506155504 | 66 | 170 | 4.3 | 10.4 | 0.00 | 0.00 | 0.00 | 71 | 1010.3 |
| 20260506155003 | 67 | 234 | 3.5 | 7.8 | 0.00 | 0.00 | 0.00 | 69 | 1010.4 |
| 20260506154503 | 67 | 309 | 1.7 | 9.6 | 0.00 | 0.00 | 0.00 | 69 | 1010.3 |
| 20260506154003 | 67 | 222 | 0.9 | 9.6 | 0.00 | 0.00 | 0.00 | 70 | 1010.3 |
| 20260506153502 | 68 | 325 | 2.6 | 10.4 | 0.00 | 0.00 | 0.00 | 69 | 1010.4 |
| 20260506153006 | 68 | 273 | 2.6 | 10.4 | 0.00 | 0.00 | 0.00 | 70 | 1010.3 |
| 20260506152503 | 68 | 245 | 2.6 | 9.6 | 0.00 | 0.00 | 0.00 | 70 | 1010.4 |
| 20260506152004 | 68 | 263 | 5.2 | 9.6 | 0.00 | 0.00 | 0.00 | 68 | 1010.4 |
| 20260506151508 | 68 | 303 | 3.5 | 13.9 | 0.00 | 0.00 | 0.00 | 70 | 1010.5 |
| 20260506151004 | 68 | 247 | 2.6 | 13.9 | 0.00 | 0.00 | 0.00 | 69 | 1010.4 |
| 20260506150511 | 67 | 255 | 3.5 | 13.0 | 0.00 | 0.00 | 0.00 | 70 | 1010.6 |
| 20260506150007 | 67 | 282 | 4.3 | 13.0 | 0.00 | 0.00 | 0.00 | 71 | 1010.5 |
| 20260506145504 | 67 | 292 | 6.1 | 9.6 | 0.00 | 0.00 | 0.00 | 72 | 1010.6 |
| 20260506145012 | 66 | 269 | 3.5 | 9.6 | 0.00 | 0.00 | 0.00 | 72 | 1010.6 |
| 20260506144505 | 66 | 291 | 2.6 | 12.2 | 0.00 | 0.00 | 0.00 | 72 | 1010.7 |
| 20260506144002 | 66 | 244 | 5.2 | 12.2 | 0.00 | 0.00 | 0.00 | 72 | 1010.7 |
| 20260506143502 | 66 | 292 | 2.6 | 17.4 | 0.00 | 0.00 | 0.00 | 72 | 1010.7 |
| 20260506143012 | 66 | 297 | 5.2 | 13.0 | 0.00 | 0.00 | 0.00 | 71 | 1010.6 |
| 20260506142503 | 66 | 301 | 3.5 | 10.4 | 0.00 | 0.00 | 0.00 | 72 | 1010.8 |
| 20260506142003 | 66 | 198 | 4.3 | 8.7 | 0.00 | 0.00 | 0.00 | 72 | 1010.9 |
| 20260506141509 | 66 | 228 | 3.5 | 9.6 | 0.00 | 0.00 | 0.00 | 73 | 1010.8 |
| 20260506141004 | 66 | 220 | 2.6 | 9.6 | 0.00 | 0.00 | 0.00 | 71 | 1010.8 |
| 20260506140503 | 67 | 250 | 4.3 | 8.7 | 0.00 | 0.00 | 0.00 | 71 | 1010.7 |
| 20260506140013 | 66 | 265 | 2.6 | 8.7 | 0.00 | 0.00 | 0.00 | 74 | 1010.7 |
| 20260506135507 | 65 | 215 | 1.7 | 9.6 | 0.00 | 0.00 | 0.00 | 75 | 1010.6 |
| 20260506135004 | 65 | 241 | 4.3 | 10.4 | 0.00 | 0.00 | 0.00 | 74 | 1010.6 |
| 20260506134514 | 65 | 255 | 5.2 | 10.4 | 0.00 | 0.00 | 0.00 | 74 | 1010.6 |
| 20260506134010 | 65 | 249 | 2.6 | 10.4 | 0.00 | 0.00 | 0.00 | 75 | 1010.6 |
| 20260506133502 | 64 | 196 | 4.3 | 8.7 | 0.00 | 0.00 | 0.00 | 75 | 1010.7 |
| 20260506133007 | 64 | 243 | 3.5 | 11.3 | 0.00 | 0.00 | 0.00 | 77 | 1010.6 |
| 20260506132504 | 63 | 273 | 3.5 | 11.3 | 0.00 | 0.00 | 0.00 | 76 | 1010.7 |
| 20260506132008 | 64 | 258 | 4.3 | 11.3 | 0.00 | 0.00 | 0.00 | 76 | 1010.8 |
| 20260506131513 | 64 | 273 | 3.5 | 11.3 | 0.00 | 0.00 | 0.00 | 76 | 1010.8 |
| 20260506131002 | 63 | 281 | 1.7 | 10.4 | 0.00 | 0.00 | 0.00 | 78 | 1010.8 |
| 20260506130503 | 63 | 200 | 4.3 | 13.0 | 0.00 | 0.00 | 0.00 | 77 | 1011.0 |
| 20260506130005 | 63 | 278 | 4.3 | 13.0 | 0.00 | 0.00 | 0.00 | 78 | 1011.1 |
| 20260506125505 | 63 | 217 | 5.2 | 11.3 | 0.00 | 0.00 | 0.00 | 77 | 1011.2 |
| 20260506125005 | 63 | 257 | 5.2 | 12.2 | 0.00 | 0.00 | 0.00 | 77 | 1011.1 |
| 20260506124514 | 63 | 207 | 2.6 | 12.2 | 0.00 | 0.00 | 0.00 | 79 | 1011.0 |
| 20260506124002 | 62 | 261 | 4.3 | 11.3 | 0.00 | 0.00 | 0.00 | 79 | 1011.0 |
| 20260506123506 | 62 | 269 | 3.5 | 11.3 | 0.00 | 0.00 | 0.00 | 80 | 1011.0 |
| 20260506123020 | 62 | 298 | 2.6 | 9.6 | 0.00 | 0.00 | 0.00 | 82 | 1011.0 |
| 20260506122509 | 61 | 241 | 3.5 | 9.6 | 0.00 | 0.00 | 0.00 | 82 | 1011.0 |
| 20260506122012 | 61 | 294 | 4.3 | 10.4 | 0.00 | 0.00 | 0.00 | 82 | 1011.0 |
| 20260506121507 | 61 | 261 | 2.6 | 10.4 | 0.00 | 0.00 | 0.00 | 82 | 1011.0 |
| 20260506121003 | 61 | 257 | 1.7 | 8.7 | 0.00 | 0.00 | 0.00 | 82 | 1010.9 |
| 20260506120507 | 61 | 173 | 2.6 | 8.7 | 0.00 | 0.00 | 0.00 | 83 | 1011.0 |
| 20260506120008 | 61 | 250 | 3.5 | 7.8 | 0.00 | 0.00 | 0.00 | 83 | 1010.9 |
| 20260506115503 | 60 | 226 | 2.6 | 7.8 | 0.00 | 0.00 | 0.00 | 84 | 1011.1 |
| 20260506115006 | 60 | 240 | 4.3 | 13.9 | 0.00 | 0.00 | 0.00 | 85 | 1010.9 |
| 20260506114509 | 60 | 227 | 2.6 | 13.9 | 0.00 | 0.00 | 0.00 | 85 | 1011.0 |
| 20260506114005 | 59 | 267 | 1.7 | 7.0 | 0.00 | 0.00 | 0.00 | 86 | 1011.3 |
| 20260506113505 | 59 | 256 | 1.7 | 7.8 | 0.00 | 0.00 | 0.00 | 86 | 1011.2 |
| 20260506113008 | 59 | 265 | 2.6 | 7.8 | 0.00 | 0.00 | 0.00 | 87 | 1011.3 |
| 20260506112507 | 59 | 215 | 3.5 | 6.1 | 0.00 | 0.00 | 0.00 | 87 | 1011.3 |
| 20260506112009 | 58 | 360 | 0.9 | 5.2 | 0.00 | 0.00 | 0.00 | 88 | 1011.3 |
| 20260506111524 | 58 | 360 | 1.7 | 9.6 | 0.00 | 0.00 | 0.00 | 88 | 1011.1 |
| 20260506111004 | 58 | 242 | 4.3 | 10.4 | 0.00 | 0.00 | 0.00 | 89 | 1011.2 |
| 20260506110511 | 57 | 269 | 4.3 | 10.4 | 0.00 | 0.00 | 0.00 | 90 | 1011.4 |
| 20260506110506 | 57 | 213 | 4.3 | 10.4 | 0.00 | 0.00 | 0.00 | 90 | 1011.4 |
| 20260506110007 | 57 | 265 | 1.7 | 7.0 | 0.00 | 0.00 | 0.00 | 90 | 1011.3 |
| 20260506105504 | 57 | 269 | 0.9 | 5.2 | 0.00 | 0.00 | 0.00 | 90 | 1011.2 |
| 20260506105005 | 56 | 271 | 2.6 | 4.3 | 0.00 | 0.00 | 0.00 | 90 | 1011.3 |
| 20260506104502 | 56 | 209 | 0.9 | 3.5 | 0.00 | 0.00 | 0.00 | 90 | 1011.3 |
| 20260506104002 | 56 | 185 | 0.9 | 4.3 | 0.00 | 0.00 | 0.00 | 90 | 1011.2 |
| 20260506103502 | 56 | 284 | 1.7 | 5.2 | 0.00 | 0.00 | 0.00 | 90 | 1011.3 |
| 20260506103006 | 56 | 221 | 1.7 | 5.2 | 0.00 | 0.00 | 0.00 | 90 | 1011.1 |
| 20260506102502 | 56 | 38 | 0.9 | 4.3 | 0.00 | 0.00 | 0.00 | 90 | 1011.1 |
| 20260506102002 | 56 | 296 | 1.7 | 4.3 | 0.00 | 0.00 | 0.00 | 89 | 1010.9 |
| 20260506101503 | 56 | 72 | 0.9 | 3.5 | 0.00 | 0.00 | 0.00 | 89 | 1010.9 |
| 20260506101006 | 56 | 225 | 0.9 | 4.3 | 0.00 | 0.00 | 0.00 | 89 | 1010.9 |
| 20260506100503 | 56 | 237 | 1.7 | 5.2 | 0.00 | 0.00 | 0.00 | 89 | 1010.8 |
| 20260506100007 | 56 | 277 | 1.7 | 5.2 | 0.00 | 0.00 | 0.00 | 89 | 1010.8 |
| 20260506095503 | 56 | 275 | 0.0 | 2.6 | 0.00 | 0.00 | 0.00 | 88 | 1010.8 |
| 20260506095002 | 57 | 247 | 0.9 | 7.0 | 0.00 | 0.00 | 0.00 | 88 | 1010.9 |
| 20260506094514 | 57 | 250 | 1.7 | 7.0 | 0.00 | 0.00 | 0.00 | 88 | 1010.9 |
| 20260506094004 | 57 | 231 | 1.7 | 7.8 | 0.00 | 0.00 | 0.00 | 88 | 1010.9 |
| 20260506093502 | 57 | 252 | 2.6 | 7.8 | 0.00 | 0.00 | 0.00 | 88 | 1010.9 |
| 20260506093004 | 57 | 284 | 1.7 | 6.1 | 0.00 | 0.00 | 0.00 | 88 | 1010.9 |
| 20260506092503 | 57 | 263 | 1.7 | 7.8 | 0.00 | 0.00 | 0.00 | 87 | 1010.9 |
| 20260506092004 | 57 | 194 | 2.6 | 8.7 | 0.00 | 0.00 | 0.00 | 88 | 1010.8 |
| 20260506091505 | 57 | 280 | 1.7 | 8.7 | 0.00 | 0.00 | 0.00 | 87 | 1010.9 |
| 20260506091007 | 57 | 136 | 0.9 | 3.5 | 0.00 | 0.00 | 0.00 | 87 | 1010.9 |
| 20260506090504 | 57 | 295 | 0.9 | 3.5 | 0.00 | 0.00 | 0.00 | 87 | 1011.0 |
| 20260506090007 | 57 | 218 | 0.9 | 7.0 | 0.00 | 0.00 | 0.00 | 87 | 1011.1 |
| 20260506085503 | 57 | 161 | 1.7 | 8.7 | 0.00 | 0.00 | 0.00 | 87 | 1011.0 |
| 20260506085004 | 57 | 252 | 1.7 | 8.7 | 0.00 | 0.00 | 0.00 | 86 | 1011.1 |
| 20260506084516 | 57 | 283 | 0.9 | 3.5 | 0.00 | 0.00 | 0.00 | 86 | 1011.1 |
| 20260506084003 | 57 | 226 | 0.9 | 3.5 | 0.00 | 0.00 | 0.00 | 86 | 1011.0 |
| 20260506083504 | 57 | 243 | 0.9 | 3.5 | 0.00 | 0.00 | 0.00 | 86 | 1011.0 |
| 20260506083013 | 58 | 245 | 0.9 | 6.1 | 0.00 | 0.00 | 0.00 | 85 | 1011.1 |
| 20260506082503 | 58 | 34 | 1.7 | 7.0 | 0.00 | 0.00 | 0.00 | 85 | 1011.2 |
| 20260506082003 | 58 | 231 | 0.9 | 7.0 | 0.00 | 0.00 | 0.00 | 85 | 1011.2 |
| 20260506081507 | 58 | 264 | 0.9 | 6.1 | 0.00 | 0.00 | 0.00 | 85 | 1011.2 |
| 20260506081003 | 58 | 252 | 1.7 | 7.0 | 0.00 | 0.00 | 0.00 | 85 | 1011.2 |
| 20260506080503 | 58 | 268 | 0.9 | 7.8 | 0.00 | 0.00 | 0.00 | 85 | 1011.3 |
| 20260506073503 | 58 | 249 | 0.9 | 7.0 | 0.00 | 0.00 | 0.00 | 84 | 1011.2 |
| 20260506073004 | 58 | 284 | 1.7 | 7.0 | 0.00 | 0.00 | 0.00 | 84 | 1011.2 |
| 20260506072508 | 58 | 23 | 1.7 | 7.0 | 0.00 | 0.00 | 0.00 | 84 | 1011.1 |
| 20260506072008 | 58 | 269 | 2.6 | 8.7 | 0.00 | 0.00 | 0.00 | 84 | 1011.2 |
| 20260506071517 | 58 | 189 | 3.5 | 8.7 | 0.00 | 0.00 | 0.00 | 83 | 1011.2 |
| 20260506071004 | 58 | 190 | 4.3 | 12.2 | 0.00 | 0.00 | 0.00 | 83 | 1011.1 |
| 20260506070503 | 58 | 292 | 3.5 | 12.2 | 0.00 | 0.00 | 0.00 | 83 | 1011.1 |
| 20260506062509 | 59 | 263 | 2.6 | 10.4 | 0.00 | 0.00 | 0.00 | 82 | 1011.0 |
| 20260506062002 | 59 | 254 | 3.5 | 10.4 | 0.00 | 0.00 | 0.00 | 82 | 1011.2 |
| 20260506061507 | 59 | 253 | 3.5 | 7.0 | 0.00 | 0.00 | 0.00 | 81 | 1011.1 |
| 20260506061008 | 59 | 245 | 2.6 | 8.7 | 0.00 | 0.00 | 0.00 | 81 | 1011.1 |
| 20260506060507 | 59 | 198 | 2.6 | 8.7 | 0.00 | 0.00 | 0.00 | 81 | 1011.2 |
| 20260506051009 | 60 | 224 | 5.2 | 8.7 | 0.00 | 0.00 | 0.00 | 79 | 1011.7 |
| 20260506050504 | 60 | 271 | 4.3 | 10.4 | 0.00 | 0.00 | 0.00 | 78 | 1011.7 |
| 20260506045005 | 60 | 207 | 3.5 | 7.8 | 0.00 | 0.00 | 0.00 | 78 | 1011.7 |
| 20260506044511 | 60 | 269 | 4.3 | 8.7 | 0.00 | 0.00 | 0.00 | 77 | 1011.8 |
| 20260506044011 | 60 | 360 | 4.3 | 8.7 | 0.00 | 0.00 | 0.00 | 77 | 1011.7 |
| 20260506043509 | 60 | 252 | 3.5 | 9.6 | 0.00 | 0.00 | 0.00 | 77 | 1011.8 |
| 20260506043006 | 61 | 255 | 4.3 | 9.6 | 0.00 | 0.00 | 0.00 | 77 | 1011.8 |
| 20260506042504 | 60 | 278 | 4.3 | 9.6 | 0.00 | 0.00 | 0.00 | 77 | 1011.8 |
| 20260506042007 | 61 | 360 | 2.6 | 12.2 | 0.00 | 0.00 | 0.00 | 77 | 1011.8 |
| 20260506041517 | 61 | 360 | 2.6 | 12.2 | 0.00 | 0.00 | 0.00 | 76 | 1011.8 |
| 20260506041004 | 61 | 360 | 1.7 | 8.7 | 0.00 | 0.00 | 0.00 | 76 | 1011.8 |
| 20260506040508 | 61 | 360 | 3.5 | 8.7 | 0.00 | 0.00 | 0.00 | 76 | 1011.9 |
| 20260506040016 | 61 | 360 | 3.5 | 8.7 | 0.00 | 0.00 | 0.00 | 75 | 1011.8 |
| 20260506035504 | 61 | 360 | 4.3 | 8.7 | 0.00 | 0.00 | 0.00 | 75 | 1011.8 |
| 20260506035008 | 61 | 360 | 3.5 | 8.7 | 0.00 | 0.00 | 0.00 | 75 | 1011.8 |
| 20260506034519 | 61 | 269 | 1.7 | 17.4 | 0.00 | 0.00 | 0.00 | 74 | 1011.7 |
| 20260506034008 | 61 | 277 | 5.2 | 17.4 | 0.00 | 0.00 | 0.00 | 74 | 1011.7 |
| 20260506033506 | 61 | 257 | 2.6 | 7.8 | 0.00 | 0.00 | 0.00 | 74 | 1011.7 |
| 20260506033016 | 61 | 280 | 2.6 | 10.4 | 0.00 | 0.00 | 0.00 | 73 | 1011.7 |
| 20260506032513 | 61 | 236 | 4.3 | 10.4 | 0.00 | 0.00 | 0.00 | 73 | 1011.7 |
| 20260506032004 | 61 | 269 | 2.6 | 7.8 | 0.00 | 0.00 | 0.00 | 72 | 1011.7 |
| 20260506031512 | 61 | 284 | 1.7 | 9.6 | 0.00 | 0.00 | 0.00 | 72 | 1011.8 |
| 20260506031004 | 61 | 274 | 2.6 | 9.6 | 0.00 | 0.00 | 0.00 | 72 | 1011.8 |
| 20260506030508 | 61 | 288 | 1.7 | 7.8 | 0.00 | 0.00 | 0.00 | 72 | 1011.7 |
| 20260506030012 | 61 | 275 | 2.6 | 7.8 | 0.00 | 0.00 | 0.00 | 71 | 1011.7 |
| 20260506025507 | 61 | 267 | 4.3 | 7.8 | 0.00 | 0.00 | 0.00 | 72 | 1011.7 |
| 20260506025009 | 61 | 275 | 1.7 | 10.4 | 0.00 | 0.00 | 0.00 | 71 | 1011.7 |
| 20260506024509 | 61 | 245 | 4.3 | 10.4 | 0.00 | 0.00 | 0.00 | 71 | 1011.8 |
| 20260506024004 | 61 | 227 | 2.6 | 9.6 | 0.00 | 0.00 | 0.00 | 71 | 1011.8 |
| 20260506023506 | 61 | 289 | 2.6 | 9.6 | 0.00 | 0.00 | 0.00 | 71 | 1011.8 |
| 20260506023024 | 61 | 324 | 3.5 | 9.6 | 0.00 | 0.00 | 0.00 | 71 | 1011.7 |
| 20260506022503 | 61 | 293 | 2.6 | 9.6 | 0.00 | 0.00 | 0.00 | 71 | 1011.9 |
| 20260506022008 | 61 | 271 | 2.6 | 7.0 | 0.00 | 0.00 | 0.00 | 71 | 1011.7 |
| 20260506021524 | 61 | 205 | 0.9 | 9.6 | 0.00 | 0.00 | 0.00 | 71 | 1011.7 |
| 20260506021010 | 61 | 227 | 1.7 | 9.6 | 0.00 | 0.00 | 0.00 | 71 | 1011.7 |
| 20260506020505 | 61 | 198 | 2.6 | 8.7 | 0.00 | 0.00 | 0.00 | 71 | 1011.7 |
| 20260506020011 | 62 | 312 | 1.7 | 8.7 | 0.00 | 0.00 | 0.00 | 70 | 1011.7 |
| 20260506015507 | 62 | 59 | 0.9 | 9.6 | 0.00 | 0.00 | 0.00 | 70 | 1011.6 |
| 20260506015004 | 62 | 271 | 4.3 | 9.6 | 0.00 | 0.00 | 0.00 | 71 | 1011.6 |
| 20260506014509 | 61 | 300 | 2.6 | 7.0 | 0.00 | 0.00 | 0.00 | 71 | 1011.7 |
| 20260506014002 | 61 | 158 | 2.6 | 9.6 | 0.00 | 0.00 | 0.00 | 71 | 1011.6 |
| 20260506013503 | 61 | 259 | 4.3 | 9.6 | 0.00 | 0.00 | 0.00 | 71 | 1011.5 |
| 20260506013007 | 61 | 128 | 0.9 | 6.1 | 0.00 | 0.00 | 0.00 | 71 | 1011.5 |
| 20260506012506 | 61 | 272 | 0.9 | 5.2 | 0.00 | 0.00 | 0.00 | 71 | 1011.5 |
| 20260506012005 | 61 | 266 | 2.6 | 8.7 | 0.00 | 0.00 | 0.00 | 71 | 1011.4 |
| 20260506011504 | 61 | 360 | 1.7 | 9.6 | 0.00 | 0.00 | 0.00 | 71 | 1011.4 |
| 20260506011004 | 61 | 360 | 1.7 | 9.6 | 0.00 | 0.00 | 0.00 | 71 | 1011.2 |
| 20260506010503 | 61 | 360 | 3.5 | 7.0 | 0.00 | 0.00 | 0.00 | 71 | 1011.3 |
| 20260506010009 | 61 | 360 | 1.7 | 7.8 | 0.00 | 0.00 | 0.00 | 71 | 1011.2 |
| 20260506005504 | 61 | 360 | 0.9 | 7.8 | 0.00 | 0.00 | 0.00 | 71 | 1011.2 |
| 20260506005005 | 60 | 207 | 0.9 | 7.8 | 0.00 | 0.00 | 0.00 | 71 | 1011.1 |
| 20260506004506 | 60 | 233 | 2.6 | 6.1 | 0.00 | 0.00 | 0.00 | 71 | 1011.2 |
| 20260506004003 | 60 | 221 | 1.7 | 6.1 | 0.00 | 0.00 | 0.00 | 71 | 1010.8 |
| 20260506003504 | 61 | 360 | 1.7 | 5.2 | 0.00 | 0.00 | 0.00 | 71 | 1010.9 |
| 20260506003003 | 61 | 73 | 0.9 | 5.2 | 0.00 | 0.00 | 0.00 | 70 | 1010.8 |
| 20260506002502 | 61 | 272 | 0.9 | 3.5 | 0.00 | 0.00 | 0.00 | 70 | 1010.6 |
| 20260506002009 | 61 | 251 | 0.9 | 6.1 | 0.00 | 0.00 | 0.00 | 70 | 1010.4 |
| 20260506001504 | 61 | 254 | 1.7 | 6.1 | 0.00 | 0.00 | 0.00 | 69 | 1010.3 |
| 20260506001003 | 61 | 360 | 0.0 | 8.7 | 0.00 | 0.00 | 0.00 | 69 | 1010.2 |
| 20260506000502 | 62 | 360 | 0.9 | 8.7 | 0.00 | 0.00 | 0.00 | 69 | 1010.2 |
| 20260506000016 | 62 | 360 | 3.5 | 7.0 | 0.00 | 0.00 | 0.00 | 69 | 1010.3 |
| 20260505235508 | 62 | 360 | 0.0 | 7.0 | 0.00 | 0.00 | 0.00 | 69 | 1010.3 |
| 20260505235003 | 62 | 360 | 0.9 | 9.6 | 0.00 | 0.00 | 0.00 | 69 | 1010.1 |
| 20260505234516 | 62 | 360 | 0.9 | 9.6 | 0.00 | 0.00 | 0.00 | 69 | 1010.1 |
| 20260505234002 | 62 | 360 | 2.6 | 13.9 | 0.00 | 0.00 | 0.00 | 68 | 1009.9 |
| 20260505233506 | 62 | 360 | 3.5 | 13.9 | 0.00 | 0.00 | 0.00 | 68 | 1009.7 |
| 20260505233011 | 62 | 360 | 3.5 | 13.9 | 0.00 | 0.00 | 0.00 | 68 | 1009.5 |
| 20260505232506 | 63 | 360 | 0.9 | 7.8 | 0.00 | 0.00 | 0.00 | 67 | 1009.7 |
| 20260505232003 | 63 | 53 | 0.9 | 5.2 | 0.00 | 0.00 | 0.00 | 67 | 1009.5 |
| 20260505231505 | 63 | 215 | 1.7 | 9.6 | 0.00 | 0.00 | 0.00 | 66 | 1009.5 |
| 20260505231002 | 64 | 213 | 4.3 | 9.6 | 0.00 | 0.00 | 0.00 | 66 | 1009.3 |
| 20260505230502 | 64 | 20 | 1.7 | 7.8 | 0.00 | 0.00 | 0.00 | 65 | 1009.2 |
| 20260505230005 | 65 | 246 | 1.7 | 11.3 | 0.00 | 0.00 | 0.00 | 64 | 1009.2 |
| 20260505225503 | 65 | 270 | 3.5 | 11.3 | 0.00 | 0.00 | 0.00 | 63 | 1009.4 |
| 20260505225004 | 66 | 109 | 2.6 | 7.8 | 0.00 | 0.00 | 0.00 | 62 | 1009.5 |
| 20260505224506 | 67 | 254 | 2.6 | 7.8 | 0.00 | 0.00 | 0.00 | 61 | 1009.6 |
| 20260505224007 | 67 | 227 | 1.7 | 9.6 | 0.00 | 0.00 | 0.00 | 61 | 1009.5 |
| 20260505223512 | 67 | 227 | 3.5 | 10.4 | 0.00 | 0.00 | 0.00 | 61 | 1009.6 |
| 20260505223013 | 68 | 110 | 1.7 | 10.4 | 0.00 | 0.00 | 0.00 | 60 | 1009.6 |
| 20260505222503 | 68 | 75 | 1.7 | 9.6 | 0.00 | 0.00 | 0.00 | 60 | 1009.4 |
| 20260505222005 | 68 | 239 | 3.5 | 9.6 | 0.00 | 0.00 | 0.00 | 60 | 1009.4 |
| 20260505221517 | 68 | 209 | 3.5 | 10.4 | 0.00 | 0.00 | 0.00 | 59 | 1009.3 |
| 20260505221002 | 68 | 141 | 0.9 | 10.4 | 0.00 | 0.00 | 0.00 | 59 | 1009.3 |
| 20260505220503 | 69 | 241 | 2.6 | 6.1 | 0.00 | 0.00 | 0.00 | 58 | 1009.2 |
| 20260505220013 | 69 | 115 | 1.7 | 7.0 | 0.00 | 0.00 | 0.00 | 58 | 1009.2 |
| 20260505215505 | 69 | 234 | 0.9 | 7.0 | 0.00 | 0.00 | 0.00 | 57 | 1009.1 |
| 20260505215004 | 70 | 184 | 2.6 | 8.7 | 0.00 | 0.00 | 0.00 | 57 | 1009.1 |
| 20260505214512 | 70 | 216 | 1.7 | 11.3 | 0.00 | 0.00 | 0.00 | 56 | 1009.0 |
| 20260505214004 | 70 | 352 | 2.6 | 11.3 | 0.00 | 0.00 | 0.00 | 56 | 1009.1 |
| 20260505213504 | 71 | 292 | 3.5 | 10.4 | 0.00 | 0.00 | 0.00 | 53 | 1009.1 |
| 20260505213009 | 72 | 231 | 2.6 | 9.6 | 0.00 | 0.00 | 0.00 | 52 | 1009.1 |
| 20260505212506 | 72 | 306 | 2.6 | 6.1 | 0.00 | 0.00 | 0.00 | 53 | 1009.0 |